Regional Weather Roundup
Issued by NWS

Home | Current Version | Previous Version | Graphics & Text | Print | Product List | Glossary On
Versions: 1 2 3 4 5 6 7 8 9 10 11 12 13 14 15 16 17 18 19 20 21 22 23 24 25 26 27 28 29 30 31 32 33 34 35 36 37 38 39 40 41 42 43 44 45 46 47 48 49 50
000
ASUS43 KFSD 232010
RWRSD

WEATHER ROUNDUP FOR SOUTH DAKOTA
NATIONAL WEATHER SERVICE SIOUX FALLS SD
300 PM CDT MON APR 23 2018

NOTE: "FAIR" INDICATES FEW OR NO CLOUDS BELOW 12,000 FEET WITH NO
SIGNIFICANT WEATHER AND/OR OBSTRUCTIONS TO VISIBILITY.


SDZ001>005-009-010-012>017-232100-
NORTHWEST AND NORTH CENTRAL SOUTH DAKOTA

CITY           SKY/WX    TMP DP  RH WIND       PRES   REMARKS
BUFFALO          N/A     63  37  38 E23       30.01F
FAITH            N/A     66  40  38 SE16G22   30.06F
MOBRIDGE       FAIR      70  41  34 S13       30.08F
$$

SDZ012>016-024>037-041>051-057-063-072>074-232100-
SOUTHWEST AND SOUTH CENTRAL SOUTH DAKOTA

CITY           SKY/WX    TMP DP  RH WIND       PRES   REMARKS
RAPID CTY ARPT FAIR      64  40  41 SE17      30.01F
PIERRE         FAIR      67  40  37 SE17      30.08F
CUSTER         FAIR      57  36  45 E18G25    30.05F
PHILIP         FAIR      69  40  34 SE14G22   30.03F
PINE RIDGE     FAIR      69  39  33 SE15G22   30.01F
SPEARFISH      FAIR      61  41  48 E22       30.01F
WINNER         MOCLDY    68  38  33 SE9       30.10F
$$

SDZ004>011-016>023-039-040-232100-
NORTHEAST SOUTH DAKOTA

CITY           SKY/WX    TMP DP  RH WIND       PRES   REMARKS
ABERDEEN       FAIR      71  37  28 NE5       30.13F
WATERTOWN      SUNNY     66  35  31 VRB6      30.15F
BROOKINGS      SUNNY     66  35  31 SW5       30.16F
SISSETON         N/A     70  39  32 S9G18     30.13F
$$

SDZ017-020-022-023-036>040-048>070-232100-
SOUTHEAST SOUTH DAKOTA

CITY           SKY/WX    TMP DP  RH WIND       PRES   REMARKS
SIOUX FALLS    MOSUNNY   69  34  27 E8        30.15F
HURON          FAIR      68  38  33 MISG      30.13F
CHAMBERLAIN    PTSUNNY   68  40  35 SE6       30.12S
MITCHELL       PTSUNNY   70  41  34 S8        30.13F
YANKTON        SUNNY     68  35  29 VRB3      30.14F
$$

ABBREVIATIONS USED IN REMARKS
   TC - TEMPERATURE IN CELSIUS
  WCI - WIND CHILL INDEX
   HX - HEAT INDEX
  VSB - VISIBILITY




USA.gov is the U.S. government's official web portal to all federal, state and local government web resources and services.